Location: Oshawa
(43.9000°N, 78.8670°W)
Time: 16:08:21
(UTC-04:00)

Transit 2A Rocket - Visible Passes

Search period start: 27 May 2016 00:00
Search period end: 06 June 2016 00:00
Orbit: 585 x 920 km, 66.7° (Epoch: 26 May)

Date Brightness Start Highest point End Pass type
(mag) Time Alt. Az. Time Alt. Az. Time Alt. Az.
27 May 8.5 03:24:07 10° N 03:27:40 16° NNE 03:31:14 10° ENE visible
27 May 6.3 21:24:03 10° SW 21:29:05 48° NW 21:34:38 10° NNE visible
27 May 8.5 23:10:42 10° NW 23:13:17 13° NNW 23:15:58 10° N visible
28 May 8.7 02:42:33 10° N 02:44:41 12° NNE 02:46:50 10° NE visible
28 May 7.1 04:23:30 10° NNW 04:29:09 37° NE 04:34:48 10° ESE visible
28 May 8.2 22:26:43 10° WNW 22:30:23 18° NW 22:34:14 10° N visible
29 May 7.7 03:41:26 10° NNW 03:46:30 26° NE 03:51:35 10° E visible
29 May 7.8 21:43:12 10° W 21:47:35 25° NW 21:52:17 10° NNE visible
30 May 8.1 02:59:29 10° N 03:03:44 19° NE 03:08:01 10° E visible
30 May 5.7 04:41:18 10° NNW 04:47:27 74° ENE 04:53:31 10° SE visible
30 May 8.7 22:47:54 10° NW 22:49:26 11° NNW 22:51:00 10° N visible
31 May 8.4 02:17:39 10° N 02:20:50 14° NNE 02:24:02 10° ENE visible
31 May 6.4 03:59:05 10° NNW 04:05:01 49° NE 04:10:53 10° SE visible
31 May 8.3 22:03:25 10° WNW 22:06:27 15° NNW 22:09:36 10° N visible
01 Jun 8.5 01:36:17 10° N 01:37:50 11° NNE 01:39:22 10° NE visible
01 Jun 7.1 03:16:57 10° NNW 03:22:27 33° NE 03:27:55 10° ESE visible
01 Jun 5.5 04:59:26 10° NW 05:05:24 53° WSW 05:11:14 10° S visible
01 Jun 8.1 21:19:36 10° W 21:23:34 20° NW 21:27:46 10° N visible
02 Jun 7.7 02:34:54 10° NNW 02:39:45 24° NE 02:44:36 10° E visible
02 Jun 5.3 04:16:59 10° NNW 04:23:10 84° WSW 04:29:13 10° SSE visible
03 Jun 8.1 01:52:58 10° N 01:56:56 17° NE 02:00:55 10° ENE visible
03 Jun 5.8 03:34:41 10° NNW 03:40:49 65° NE 03:46:49 10° SE visible
03 Jun 8.4 21:40:23 10° NW 21:42:34 12° NNW 21:44:49 10° N visible
04 Jun 8.2 01:11:13 10° N 01:14:00 13° NNE 01:16:47 10° NE visible
04 Jun 6.5 02:52:29 10° NNW 02:58:19 43° NE 03:04:05 10° ESE visible
04 Jun 5.8 04:35:20 10° NW 04:40:58 39° WSW 04:46:28 10° S visible
05 Jun 8.5 00:30:27 10° NNE 00:30:57 10° NNE 00:31:27 10° NNE visible
05 Jun 7.2 02:10:23 10° NNW 02:15:43 30° NE 02:21:00 10° ESE visible
05 Jun 5.4 03:52:45 10° NW 03:58:49 62° WSW 04:04:44 10° SSE visible
